TimeEDT,TemperatureF,Dew PointF,Humidity,Sea Level PressureIn,VisibilityMPH,Wind Direction,Wind SpeedMPH,Gust SpeedMPH,PrecipitationIn,Events,Conditions,WindDirDegrees,DateUTC
12:51 AM,39.0,37.9,96,30.33,10.0,Calm,Calm,-,N/A,,Clear,0,2013-09-18 04:51:00
1:51 AM,39.0,37.0,93,30.32,10.0,Calm,Calm,-,N/A,,Clear,0,2013-09-18 05:51:00
2:46 AM,37.4,37.4,100,30.31,10.0,Calm,Calm,-,N/A,,Scattered Clouds,0,2013-09-18 06:46:00
2:51 AM,37.9,37.9,100,30.32,10.0,Calm,Calm,-,N/A,,Mostly Cloudy,0,2013-09-18 06:51:00
3:16 AM,37.4,37.4,100,30.31,1.5,Calm,Calm,-,N/A,,Overcast,0,2013-09-18 07:16:00
3:19 AM,37.4,37.4,100,30.31,0.8,Calm,Calm,-,N/A,,Mist,0,2013-09-18 07:19:00
3:30 AM,37.4,37.4,100,30.30,0.2,Calm,Calm,-,N/A,Fog,Fog,0,2013-09-18 07:30:00
3:49 AM,37.4,37.4,100,30.30,0.8,Calm,Calm,-,N/A,,Mist,0,2013-09-18 07:49:00
3:51 AM,37.9,37.9,100,30.31,0.8,Calm,Calm,-,N/A,,Mist,0,2013-09-18 07:51:00
4:34 AM,37.4,37.4,100,30.30,1.2,Calm,Calm,-,N/A,,Scattered Clouds,0,2013-09-18 08:34:00
4:42 AM,37.4,35.6,93,30.30,2.0,Calm,Calm,-,N/A,,Partly Cloudy,0,2013-09-18 08:42:00
4:49 AM,37.4,35.6,93,30.30,4.0,Calm,Calm,-,N/A,,Clear,0,2013-09-18 08:49:00
4:51 AM,37.0,36.0,96,30.31,5.0,Calm,Calm,-,N/A,,Clear,0,2013-09-18 08:51:00
5:30 AM,35.6,35.6,100,30.31,10.0,Calm,Calm,-,N/A,,Scattered Clouds,0,2013-09-18 09:30:00
5:39 AM,35.6,35.6,100,30.31,10.0,Calm,Calm,-,N/A,,Mostly Cloudy,0,2013-09-18 09:39:00
5:51 AM,36.0,36.0,100,30.31,10.0,Calm,Calm,-,N/A,,Overcast,0,2013-09-18 09:51:00
6:24 AM,35.6,35.6,100,30.31,1.8,Calm,Calm,-,N/A,,Overcast,0,2013-09-18 10:24:00
6:26 AM,35.6,35.6,100,30.31,0.8,Calm,Calm,-,N/A,,Overcast,0,2013-09-18 10:26:00
6:43 AM,35.6,35.6,100,30.32,2.0,Calm,Calm,-,N/A,,Overcast,0,2013-09-18 10:43:00
6:51 AM,37.0,37.0,100,30.32,7.0,Calm,Calm,-,N/A,,Overcast,0,2013-09-18 10:51:00
6:56 AM,37.4,37.4,100,30.31,1.2,Calm,Calm,-,N/A,,Overcast,0,2013-09-18 10:56:00
7:01 AM,37.4,37.4,100,30.31,0.2,Calm,Calm,-,N/A,Fog,Fog,0,2013-09-18 11:01:00
7:43 AM,39.2,39.2,100,30.31,0.5,Calm,Calm,-,N/A,Fog,Fog,0,2013-09-18 11:43:00
7:51 AM,41.0,41.0,100,30.32,0.2,Calm,Calm,-,N/A,Fog,Fog,0,2013-09-18 11:51:00
8:10 AM,42.8,42.8,100,30.31,0.5,Calm,Calm,-,N/A,Fog,Fog,0,2013-09-18 12:10:00
8:20 AM,42.8,42.8,100,30.30,1.5,Calm,Calm,-,N/A,,Overcast,0,2013-09-18 12:20:00
8:28 AM,44.6,44.6,100,30.30,3.0,Calm,Calm,-,N/A,,Overcast,0,2013-09-18 12:28:00
8:46 AM,44.6,44.6,100,30.30,10.0,Calm,Calm,-,N/A,,Scattered Clouds,0,2013-09-18 12:46:00
8:51 AM,46.0,45.0,96,30.31,10.0,Calm,Calm,-,N/A,,Partly Cloudy,0,2013-09-18 12:51:00
9:51 AM,57.0,46.9,69,30.30,10.0,Calm,Calm,-,N/A,,Clear,0,2013-09-18 13:51:00
10:51 AM,62.1,45.0,53,30.28,10.0,Calm,Calm,-,N/A,,Clear,0,2013-09-18 14:51:00
11:51 AM,66.0,45.0,47,30.26,10.0,Variable,3.5,-,N/A,,Clear,0,2013-09-18 15:51:00
12:51 PM,69.1,42.1,38,30.24,10.0,Variable,3.5,-,N/A,,Clear,0,2013-09-18 16:51:00
1:51 PM,72.0,39.9,31,30.21,10.0,Variable,4.6,-,N/A,,Clear,0,2013-09-18 17:51:00
2:51 PM,72.0,42.1,34,30.18,10.0,West,4.6,-,N/A,,Clear,270,2013-09-18 18:51:00
3:51 PM,72.0,42.1,34,30.16,10.0,WSW,4.6,-,N/A,,Clear,240,2013-09-18 19:51:00
4:51 PM,73.0,39.9,30,30.14,10.0,WSW,6.9,-,N/A,,Clear,250,2013-09-18 20:51:00
5:51 PM,71.1,41.0,34,30.14,10.0,SW,4.6,-,N/A,,Clear,230,2013-09-18 21:51:00
6:51 PM,63.0,46.0,54,30.14,10.0,South,3.5,-,N/A,,Clear,190,2013-09-18 22:51:00
7:51 PM,55.0,48.9,80,30.14,10.0,Calm,Calm,-,N/A,,Clear,0,2013-09-18 23:51:00
8:51 PM,50.0,48.9,96,30.15,10.0,Calm,Calm,-,N/A,,Clear,0,2013-09-19 00:51:00
9:51 PM,48.9,48.0,97,30.16,10.0,Calm,Calm,-,N/A,,Clear,0,2013-09-19 01:51:00
10:51 PM,46.9,46.0,97,30.15,10.0,Calm,Calm,-,N/A,,Clear,0,2013-09-19 02:51:00
11:51 PM,46.0,45.0,96,30.14,10.0,Calm,Calm,-,N/A,,Clear,0,2013-09-19 03:51:00